Location: Caltech
(34.1382°N, 118.1253°W)
Time: 10:12:49
(UTC-07:00)

Iridium 91 - Visible Passes

Search period start: 26 July 2014 00:00
Search period end: 05 August 2014 00:00
Orbit: 775 x 780 km, 86.4° (Epoch: 25 July)

Date Brightness Start Highest point End Pass type
(mag) Time Alt. Az. Time Alt. Az. Time Alt. Az.
26 Jul 5.5 05:22:57 10° S 05:28:08 81° W 05:33:22 10° N visible
27 Jul 6.4 04:49:40 10° SSE 04:54:41 52° E 04:59:43 10° NNE visible
28 Jul 7.6 04:17:03 10° SE 04:21:20 27° E 04:25:38 10° NNE visible
29 Jul 8.3 03:45:34 10° ESE 03:48:06 14° E 03:50:39 10° NE visible
29 Jul 5.7 05:23:12 10° SSW 05:28:15 53° W 05:33:21 10° N visible
30 Jul 5.7 04:49:33 10° S 04:54:44 79° E 04:59:56 10° N visible
31 Jul 6.8 04:16:31 10° SSE 04:21:19 40° E 04:26:08 10° NNE visible
01 Aug 7.8 03:44:14 10° SE 03:48:01 21° E 03:51:48 10° NE visible
01 Aug 6.2 05:23:41 10° SSW 05:28:25 35° W 05:33:11 10° NNW visible
02 Aug 8.5 03:14:16 10° E 03:14:50 10° ENE 03:15:24 10° ENE visible
02 Aug 5.5 04:49:39 10° S 04:54:49 70° W 05:00:01 10° N visible
03 Aug 6.0 04:16:36 12° SSE 04:21:20 60° E 04:26:27 10° N visible
04 Aug 7.2 03:43:44 11° SE 03:47:58 31° E 03:52:28 10° NNE visible
04 Aug 6.7 05:24:28 10° SW 05:28:37 24° W 05:32:48 10° NNW visible
